Showing default

CINEMA 2, 39424

Orbit data source: Space-Track

CINEMA 2, 39424 is a payload satellite owned by Kyung Hee U (US) in SSO that was launched on Thu, 21 Nov 2013 UTC via a DNEPR launch vehicle from the Orenburg, Russia (OREN). Payload-class satellites include a variety of spacecraft equipped with specific instruments for various scientific and technological missions. These include communications satellites like Starlink; space stations such as the ISS; scientific satellites like the Hubble; Earth observation satellites from companies like Planet Labs, Umbra, and HawkEye 360; GPS; miniature CubeSats for education and research; and military/defense satellites.

Loading next visibility...
Identifier
39424, 2013-066J
Orbit
SSO
Country
Flag of USUS
Related business
Manufacturer
KHUS/UCB
Mission
Non-operational Amateur Science
Bus & Motor
CUBESAT 3U, Unknown motor
Mass
4 kg wet, 4 kg dry
Launch date (UTC)
2013-11-21 (12 years ago)
Launch vehicle
DNEPR
Launch site
Orenburg, Russia (OREN)
Object type
Payload
Rocket body
Debris
Shape & HBR
Box + 1 Rod, 0.3 m
Radar Cross Section
0.035 m², Small (<0.1 m²)

Expand to show TLE details & history
Last TLE update: 8 hours ago

TLE from 8 hours ago
0 CINEMA 2
1 39424U 13066J   25300.53471341  .00002991  00000-0  35590-3 0  9992
2 39424  97.8693 229.4373 0077237 168.3037 191.9994 14.83008121641595
Epoch: 2025-10-27T12:49Z
TLE epoch observation values (Epoch: 2025-10-27T12:49:59.238Z)
Latitude
-0.00006°
Longitude
0.80531°
Altitude
675.77 km
Speed
7.49 km/s
True Right ascension
15h 17m 44s
True Declination
0° 00' 00"
Sunlit
Object was in daylight at epoch
Visualization orbit readout
Latitude
Unknown
Longitude
Unknown
Altitude
Unknown
Speed
Unknown
Apparent Right ascension
Unknown
Apparent Declination
Unknown
Sunlit
N/A
Visualization observer readout
Local Sidereal Time
15:53:15
Azimuth
Unknown
Elevation
Unknown
Doppler factor
Unknown
Orbital elements
Apogee altitude
670.908 km
Perigee altitude
562.853 km
Semi-major axis
6,995.017 km
Eccentricity
0.00772
Inclination
97.8693°
RAAN
229.4373°
Arg. of periapsis
168.3037°
True anomaly
191.81711°
Mean anomaly
191.9994°
Eccentric anomaly
191.90809°
Mean motion
3.70988 °/min
Orbital period
97.04 mins
BSTAR
0.0003559
Loading maneuver chart data...
Computing Atmospheric mass density...
Loading historical data...
Loading historical data...
Loading historical data...
Loading historical data...
Loading historical data...
Loading historical data...
Loading historical data...

Documentation

Showing up to 5 results
|